Flag for Austria Weather past 2 weeks in Bruck an der Leitha, Lower Austria, Austria

Now
52 °F

Light rain. Overcast.


Feels Like: 51 °F
Forecast: 54 / 63 °F
Wind: 6 mph from Northwest

Location: Wien / Schwechat-Flughafen

Current Time: May 23, 2015 at 3:26:21 AM

Latest Report: May 23, 2015 at 2:00 AM


Visibility: 4 mi

Pressure: 30.03 "Hg

Humidity: 92%

Dew point: 50 °F

Location of Bruck an der LeithaLocation

Historic Weather in Bruck an der Leitha — Graph

°F

Bruck an der Leitha temperature yesterday

Maximum temperature yesterday: 58 °F (at 11:00 AM)
Minimum temperature yesterday: 53 °F (at 11:00 PM)
Average temperature yesterday: 55 °F

Past Weeks' High & Low Weather Summary

 TemperatureHumidityPressure
High75 °F (May 12, 3:00 PM)96% (May 16, 12:00 AM)30.41 "Hg (May 16, 12:00 AM)
Low44 °F (May 12, 1:00 AM)32% (May 11, 4:00 PM)29.73 "Hg (May 19, 6:00 AM)
Average60 °F66%30.05 "Hg
* Reported May 8 2:00 AM — May 23 2:00 AM, Bruck an der Leitha, Weather by CustomWeather, © 2015

Note: Actual official high and low records may vary slightly from our data, if they occured in-between our weather recording intervals... More about our weather records

Advertising

Bruck an der Leitha weather history for previous 24 hours

 ConditionsComfort  
Time TempWeatherWind HumidityBarometerVisibility
2:00 AM
Sat, May 23
52 °FLight rain. Overcast.6 mph92%30.03 "Hg4 mi
1:00 AM53 °FLight rain. Overcast.6 mph94%30.06 "Hg6 mi
12:00 AM53 °FLight rain. Overcast.6 mph91%30.07 "Hg6 mi
11:00 PM
Fri, May 22
53 °FLight rain. Overcast.5 mph90%30.08 "Hg7 mi
10:00 PM53 °FLight rain. Overcast.5 mph90%30.08 "Hg7 mi
9:00 PM54 °FHeavy rain. Overcast.N/A88%30.10 "Hg6 mi
8:00 PM54 °FLight rain. Overcast.5 mph88%30.09 "Hg11 mi
7:00 PM54 °FLight rain. Overcast.6 mph89%30.10 "Hg7 mi
6:00 PM54 °FLight rain. Overcast.6 mph91%30.11 "Hg6 mi
5:00 PM54 °FLight rain. Overcast.7 mph89%30.12 "Hg5 mi
4:00 PM55 °FLight rain. Overcast.7 mph88%30.14 "Hg5 mi
3:00 PM55 °FHeavy rain. Overcast.7 mph85%30.15 "Hg4 mi
2:00 PM55 °FHeavy rain. Overcast.7 mph82%30.15 "Hg5 mi
1:00 PM57 °FLight rain. Overcast.7 mph75%30.16 "Hg7 mi
12:00 PM57 °FLight rain. Overcast.8 mph71%30.16 "Hg7 mi
11:00 AM58 °FLight rain. Overcast.8 mph66%30.17 "Hg9 mi
10:00 AM57 °FOvercast.8 mph68%30.17 "Hg14 mi
9:00 AM55 °FOvercast.9 mph68%30.18 "Hg13 mi
8:00 AM54 °FOvercast.8 mph70%30.18 "Hg17 mi
7:00 AM54 °FOvercast.8 mph72%30.17 "Hg14 mi
6:00 AM54 °FOvercast.8 mph71%30.17 "Hg13 mi
5:00 AM54 °FOvercast.8 mph70%30.17 "Hg25 mi
4:00 AM54 °FOvercast.8 mph69%30.17 "Hg22 mi
3:00 AM55 °FOvercast.8 mph68%30.17 "Hg25 mi
Weather by CustomWeather, © 2015

See weather overviewHow to use our weather pages